User: anonymous   Login
Location: Christchurch
(43.5330°S, 172.6330°E)
Time: 15:00:27
(UTC+13:00)
Language:

Cosmos 841 Rocket - Orbit

View from above orbital plane
View from above orbital plane
View from above satellite
View from above satellite

Ground track
Ground track

The orbit data is extracted from the following two-line orbital elements,

1  9023U 76069B   19084.18809787  .00000030  00000-0  17902-4 0  9998
2  9023  74.0450 344.4655 0017712 346.8042  13.2647 14.39614388237789
Epoch (UTC): 25 March 2019 04:30:51
Eccentricity: 0.0017712
inclination: 74.0450°
perigee height: 747 km
apogee height: 772 km
right ascension of ascending node: 344.4655°
argument of perigee: 346.8042°
revolutions per day: 14.39614388
mean anomaly at epoch: 13.2647°
orbit number at epoch: 23778

The dashed part of the orbit path shows where the satellite is in the earth's shadow,  

DLR